LiveATC.Net - Listen to live air traffic control over the Internet!


ICAO: KEUL  IATA: EUL   Airport: Caldwell Industrial Airport
City: Nampa   State/Province: Idaho
Country: United States   Continent: North America
KEUL METAR Weather: KEUL 182056Z AUTO 14004KT 10SM CLR 34/11 A2994 RMK AO2 SLP112 T03440111 58012
KEUL ADS-B Flight Tracking (ADSBExchange)
KEUL Flight Activity (FlightAware)
KEUL Webcam:  (Airport Webcams) 
KEUL Airport Info   (iFlightPlanner)
KEUL VFR Sectional Chart   (iFlightPlanner) 
KEUL IFR Low Altitude Chart   (iFlightPlanner) 
KEUL IFR High Altitude Chart   (iFlightPlanner) 

KMAN/KEUL CTAF
Feed Status: DOWN
Last heard on: 2022-04-28 00:26:04 (112 days 20 hours 38 minutes ago)
Archive Access: KMAN/KEUL CTAF
FacilityFrequency
Nampa/Caldwell CTAF/UNICOM122.700
Feed provided by: T-Craft Aero Club

NOTICE

Unauthorized use prohibited. See LiveATC.net Terms of Service


Airport/ARTCC Code
Frequency Search
(e.g., 124.400, 128.75)
Site-wide search
 


Browse Feeds
Top 50 Feeds
HF Oceanic Feeds
Coverage Map
Bad Weather Areas

LiveATC FAQ
Offer LiveATC feed
Contact LiveATC.net
Press Inquiries

LiveATC on iPhone
LiveATC on Android

LiveATC Mobile
(Mobile browser)

ATC Audio Archives
Interesting Recordings

LiveATC Forums


Home Page
About LiveATC.net


Terms of Use
Privacy Policy

AIRMETs/SIGMETs

FAA Airport Status
NAS Status
Arrival Demand


Server Software By:
Icecast.org
Liquidsoap